| time (UTC) | temp C | wind direction | speed KPH | gust KPH | rain 1hr cm | rain 24hr cm | rain mn cm | humidity % | barometer mb |
| 20260507065003 | 10 | 0 | 0.0 | 0.0 | 0.00 | 0.56 | 0.00 | 90 | 1006.2 |
| 20260507064504 | 10 | 0 | 0.0 | 0.0 | 0.00 | 0.56 | 0.00 | 90 | 1005.8 |
| 20260507064003 | 11 | 0 | 0.0 | 0.0 | 0.00 | 0.56 | 0.00 | 90 | 1006.2 |
| 20260507063504 | 11 | 0 | 0.0 | 0.0 | 0.00 | 0.56 | 0.00 | 90 | 1006.3 |
| 20260507063003 | 11 | 0 | 0.0 | 0.0 | 0.00 | 0.56 | 0.00 | 90 | 1006.0 |
| 20260507062503 | 11 | 0 | 0.0 | 0.0 | 0.00 | 0.56 | 0.00 | 90 | 1005.9 |
| 20260507062003 | 11 | 0 | 0.0 | 0.0 | 0.00 | 0.56 | 0.00 | 90 | 1005.9 |
| 20260507061503 | 11 | 0 | 0.0 | 0.0 | 0.00 | 0.56 | 0.00 | 90 | 1006.0 |
| 20260507061003 | 11 | 0 | 0.0 | 0.0 | 0.00 | 0.56 | 0.00 | 90 | 1006.0 |
| 20260507060503 | 11 | 0 | 0.0 | 0.0 | 0.00 | 0.56 | 0.00 | 90 | 1006.1 |
| 20260507060004 | 11 | 0 | 0.0 | 0.0 | 0.00 | 0.56 | 0.00 | 90 | 1006.1 |
| 20260507055504 | 11 | 0 | 0.0 | 0.0 | 0.00 | 0.56 | 0.00 | 90 | 1006.1 |
| 20260507055003 | 11 | 0 | 0.0 | 0.0 | 0.00 | 0.56 | 0.00 | 90 | 1006.3 |
| 20260507054504 | 11 | 0 | 0.0 | 0.0 | 0.00 | 0.56 | 0.00 | 90 | 1006.4 |
| 20260507054003 | 11 | 0 | 0.0 | 0.0 | 0.00 | 0.56 | 0.00 | 90 | 1006.6 |
| 20260507053504 | 11 | 0 | 0.0 | 0.0 | 0.00 | 0.56 | 0.00 | 90 | 1006.7 |
| 20260507053004 | 11 | 0 | 0.0 | 0.0 | 0.00 | 0.56 | 0.00 | 90 | 1006.6 |
| 20260507051503 | 11 | 0 | 0.0 | 0.0 | 0.00 | 0.56 | 0.00 | 91 | 1006.4 |
| 20260507051003 | 11 | 0 | 0.0 | 0.0 | 0.00 | 0.56 | 0.00 | 91 | 1006.8 |
| 20260507050503 | 11 | 0 | 0.0 | 0.0 | 0.00 | 0.56 | 0.00 | 91 | 1006.7 |
| 20260507050003 | 12 | 0 | 0.0 | 0.0 | 0.00 | 0.56 | 0.00 | 91 | 1006.4 |
| 20260507045504 | 12 | 314 | 0.0 | 1.6 | 0.00 | 0.56 | 0.00 | 91 | 1006.3 |
| 20260507045003 | 12 | 314 | 0.0 | 4.8 | 0.05 | 0.56 | 0.00 | 91 | 1006.3 |
| 20260507044503 | 12 | 318 | 0.0 | 6.4 | 0.05 | 0.56 | 0.00 | 91 | 1006.3 |
| 20260507043503 | 12 | 0 | 0.0 | 0.0 | 0.05 | 0.56 | 0.00 | 91 | 1006.3 |
| 20260507043003 | 12 | 0 | 0.0 | 0.0 | 0.05 | 0.56 | 0.00 | 91 | 1006.3 |
| 20260507042003 | 12 | 323 | 0.0 | 3.2 | 0.05 | 0.56 | 0.00 | 91 | 1006.3 |
| 20260507041503 | 12 | 324 | 0.0 | 3.2 | 0.05 | 0.56 | 0.00 | 91 | 1006.3 |
| 20260507041003 | 13 | 318 | 0.0 | 4.8 | 0.05 | 0.56 | 0.00 | 91 | 1006.4 |
| 20260507040503 | 13 | 318 | 1.6 | 11.3 | 0.05 | 0.56 | 0.00 | 91 | 1006.4 |
| 20260507040005 | 13 | 317 | 1.6 | 11.3 | 0.05 | 0.56 | 0.00 | 91 | 1006.3 |
| 20260507035003 | 13 | 0 | 0.0 | 0.0 | 0.03 | 0.51 | 0.51 | 92 | 1006.3 |
| 20260507034503 | 13 | 0 | 0.0 | 0.0 | 0.03 | 0.51 | 0.51 | 92 | 1006.0 |
| 20260507034003 | 13 | 0 | 0.0 | 0.0 | 0.03 | 0.51 | 0.51 | 92 | 1005.8 |
| 20260507033503 | 13 | 313 | 0.0 | 4.8 | 0.03 | 0.51 | 0.51 | 92 | 1005.8 |
| 20260507032504 | 14 | 311 | 0.0 | 3.2 | 0.03 | 0.51 | 0.51 | 93 | 1005.8 |
| 20260507032003 | 14 | 317 | 1.6 | 9.7 | 0.03 | 0.51 | 0.51 | 93 | 1005.7 |
| 20260507031504 | 14 | 309 | 1.6 | 9.7 | 0.03 | 0.51 | 0.51 | 94 | 1005.5 |
| 20260507031003 | 15 | 303 | 3.2 | 9.7 | 0.03 | 0.51 | 0.51 | 94 | 1005.3 |
| 20260507030503 | 15 | 305 | 1.6 | 9.7 | 0.03 | 0.51 | 0.51 | 95 | 1005.6 |
| 20260507030004 | 15 | 0 | 0.0 | 0.0 | 0.00 | 0.48 | 0.48 | 95 | 1005.4 |
| 20260507025503 | 15 | 0 | 0.0 | 0.0 | 0.00 | 0.48 | 0.48 | 95 | 1005.3 |
| 20260507025004 | 15 | 0 | 0.0 | 0.0 | 0.00 | 0.48 | 0.48 | 95 | 1005.4 |
| 20260507024504 | 15 | 220 | 0.0 | 3.2 | 0.00 | 0.48 | 0.48 | 95 | 1005.2 |
| 20260507024003 | 15 | 220 | 0.0 | 3.2 | 0.00 | 0.48 | 0.48 | 95 | 1005.2 |
| 20260507023504 | 15 | 203 | 0.0 | 6.4 | 0.00 | 0.48 | 0.48 | 95 | 1005.2 |
| 20260507023003 | 15 | 201 | 0.0 | 6.4 | 0.00 | 0.48 | 0.48 | 94 | 1005.3 |
| 20260507021503 | 15 | 0 | 0.0 | 0.0 | 0.00 | 0.48 | 0.48 | 94 | 1004.9 |
| 20260507021003 | 15 | 0 | 0.0 | 0.0 | 0.00 | 0.48 | 0.48 | 94 | 1004.7 |
| 20260507020503 | 15 | 249 | 0.0 | 9.7 | 0.00 | 0.48 | 0.48 | 94 | 1004.7 |
| 20260507020004 | 15 | 244 | 0.0 | 9.7 | 0.00 | 0.48 | 0.48 | 94 | 1004.9 |
| 20260507015014 | 15 | 228 | 0.0 | 8.0 | 0.00 | 0.48 | 0.48 | 94 | 1004.8 |
| 20260507014503 | 15 | 202 | 0.0 | 4.8 | 0.00 | 0.48 | 0.48 | 94 | 1004.9 |
| 20260507014004 | 15 | 182 | 1.6 | 9.7 | 0.00 | 0.48 | 0.48 | 94 | 1005.1 |
| 20260507013507 | 15 | 196 | 1.6 | 9.7 | 0.00 | 0.48 | 0.48 | 94 | 1005.1 |
| 20260507013004 | 15 | 209 | 1.6 | 11.3 | 0.00 | 0.48 | 0.48 | 94 | 1004.9 |
| 20260507012003 | 15 | 182 | 3.2 | 9.7 | 0.00 | 0.48 | 0.48 | 94 | 1005.1 |
| 20260507011504 | 15 | 174 | 1.6 | 9.7 | 0.00 | 0.48 | 0.48 | 94 | 1005.1 |
| 20260507010503 | 15 | 182 | 1.6 | 12.9 | 0.00 | 0.48 | 0.48 | 94 | 1005.1 |
| 20260507010003 | 15 | 215 | 0.0 | 1.6 | 0.00 | 0.48 | 0.48 | 94 | 1005.2 |
| 20260507005503 | 15 | 159 | 0.0 | 9.7 | 0.00 | 0.48 | 0.48 | 94 | 1005.2 |
| 20260507005008 | 15 | 163 | 0.0 | 9.7 | 0.00 | 0.48 | 0.48 | 94 | 1005.2 |
| 20260507004512 | 15 | 166 | 1.6 | 8.0 | 0.00 | 0.48 | 0.48 | 94 | 1005.2 |
| 20260507003503 | 15 | 175 | 0.0 | 9.7 | 0.00 | 0.48 | 0.48 | 94 | 1005.0 |
| 20260507003003 | 15 | 152 | 0.0 | 6.4 | 0.00 | 0.48 | 0.48 | 94 | 1004.8 |
| 20260507002504 | 15 | 176 | 1.6 | 8.0 | 0.00 | 0.48 | 0.48 | 94 | 1004.8 |
| 20260507002003 | 15 | 194 | 1.6 | 9.7 | 0.00 | 0.48 | 0.48 | 94 | 1004.8 |
| 20260507001504 | 15 | 191 | 1.6 | 11.3 | 0.00 | 0.48 | 0.48 | 94 | 1004.8 |
| 20260507001003 | 15 | 174 | 1.6 | 11.3 | 0.03 | 0.48 | 0.48 | 94 | 1004.9 |
| 20260507000003 | 15 | 159 | 0.0 | 9.7 | 0.08 | 0.48 | 0.48 | 94 | 1004.7 |
| 20260506235503 | 15 | 156 | 0.0 | 9.7 | 0.10 | 0.48 | 0.48 | 94 | 1004.7 |
| 20260506234004 | 15 | 159 | 0.0 | 9.7 | 0.15 | 0.48 | 0.48 | 94 | 1004.7 |
| 20260506233004 | 15 | 193 | 0.0 | 9.7 | 0.18 | 0.48 | 0.48 | 93 | 1004.7 |
| 20260506232503 | 15 | 193 | 0.0 | 9.7 | 0.18 | 0.48 | 0.48 | 93 | 1004.7 |
| 20260506232003 | 15 | 0 | 0.0 | 0.0 | 0.20 | 0.48 | 0.48 | 93 | 1004.7 |
| 20260506231003 | 15 | 161 | 1.6 | 14.5 | 0.20 | 0.46 | 0.46 | 93 | 1004.7 |
| 20260506230004 | 15 | 170 | 1.6 | 11.3 | 0.15 | 0.41 | 0.41 | 93 | 1004.8 |
| 20260506225004 | 15 | 172 | 0.0 | 3.2 | 0.18 | 0.38 | 0.38 | 92 | 1005.1 |
| 20260506224503 | 15 | 192 | 1.6 | 6.4 | 0.15 | 0.36 | 0.36 | 92 | 1005.1 |
| 20260506224003 | 15 | 179 | 1.6 | 11.3 | 0.13 | 0.33 | 0.33 | 92 | 1005.0 |
| 20260506223503 | 15 | 171 | 1.6 | 11.3 | 0.10 | 0.30 | 0.30 | 92 | 1005.0 |
| 20260506223004 | 15 | 181 | 1.6 | 14.5 | 0.10 | 0.30 | 0.30 | 92 | 1004.9 |
| 20260506222503 | 15 | 178 | 1.6 | 14.5 | 0.10 | 0.30 | 0.30 | 92 | 1005.1 |
| 20260506222003 | 15 | 166 | 1.6 | 9.7 | 0.08 | 0.28 | 0.28 | 92 | 1005.1 |
| 20260506221504 | 15 | 161 | 1.6 | 14.5 | 0.05 | 0.25 | 0.25 | 92 | 1005.2 |
| 20260506221003 | 15 | 159 | 3.2 | 14.5 | 0.05 | 0.25 | 0.25 | 91 | 1005.2 |
| 20260506220503 | 15 | 160 | 3.2 | 14.5 | 0.08 | 0.25 | 0.25 | 91 | 1005.2 |
| 20260506220003 | 15 | 166 | 1.6 | 20.9 | 0.08 | 0.25 | 0.25 | 91 | 1005.2 |
| 20260506215003 | 15 | 145 | 1.6 | 14.5 | 0.03 | 0.20 | 0.20 | 91 | 1005.3 |
| 20260506214004 | 15 | 168 | 3.2 | 19.3 | 0.05 | 0.20 | 0.20 | 90 | 1005.2 |
| 20260506213503 | 15 | 165 | 3.2 | 19.3 | 0.05 | 0.20 | 0.20 | 90 | 1005.2 |
| 20260506213004 | 16 | 169 | 1.6 | 14.5 | 0.05 | 0.20 | 0.20 | 90 | 1005.2 |
| 20260506211503 | 16 | 163 | 1.6 | 22.5 | 0.08 | 0.20 | 0.20 | 89 | 1005.5 |
| 20260506211003 | 16 | 179 | 0.0 | 22.5 | 0.10 | 0.20 | 0.20 | 89 | 1005.6 |
| 20260506210504 | 16 | 171 | 3.2 | 24.1 | 0.08 | 0.18 | 0.18 | 89 | 1005.6 |
| 20260506210003 | 16 | 166 | 3.2 | 24.1 | 0.08 | 0.18 | 0.18 | 89 | 1005.7 |
| 20260506205503 | 16 | 163 | 1.6 | 19.3 | 0.08 | 0.18 | 0.18 | 89 | 1005.8 |
| 20260506205004 | 16 | 166 | 3.2 | 19.3 | 0.08 | 0.18 | 0.18 | 88 | 1005.8 |
| 20260506204504 | 16 | 174 | 3.2 | 17.7 | 0.05 | 0.15 | 0.15 | 88 | 1005.8 |
| 20260506204003 | 16 | 184 | 1.6 | 14.5 | 0.05 | 0.15 | 0.15 | 87 | 1005.8 |
| 20260506203503 | 16 | 199 | 1.6 | 11.3 | 0.05 | 0.15 | 0.15 | 87 | 1005.8 |
| 20260506203004 | 17 | 178 | 1.6 | 14.5 | 0.05 | 0.15 | 0.15 | 87 | 1005.8 |
| 20260506202503 | 17 | 172 | 1.6 | 14.5 | 0.03 | 0.13 | 0.13 | 87 | 1005.8 |
| 20260506201504 | 17 | 172 | 1.6 | 11.3 | 0.05 | 0.13 | 0.13 | 85 | 1005.8 |
| 20260506200504 | 17 | 154 | 0.0 | 4.8 | 0.05 | 0.10 | 0.10 | 84 | 1005.8 |
| 20260506200004 | 17 | 162 | 1.6 | 9.7 | 0.05 | 0.10 | 0.10 | 84 | 1005.8 |
| 20260506195003 | 17 | 185 | 1.6 | 17.7 | 0.08 | 0.10 | 0.10 | 83 | 1005.8 |
| 20260506194002 | 18 | 169 | 0.0 | 3.2 | 0.10 | 0.10 | 0.10 | 82 | 1005.8 |
| 20260506193503 | 18 | 194 | 1.6 | 14.5 | 0.10 | 0.10 | 0.10 | 81 | 1005.8 |
| 20260506193002 | 18 | 192 | 1.6 | 14.5 | 0.10 | 0.10 | 0.10 | 80 | 1005.8 |
| 20260506192502 | 18 | 175 | 0.0 | 4.8 | 0.08 | 0.08 | 0.08 | 80 | 1005.8 |
| 20260506192003 | 18 | 133 | 0.0 | 3.2 | 0.08 | 0.08 | 0.08 | 79 | 1005.9 |
| 20260506191502 | 18 | 165 | 0.0 | 14.5 | 0.08 | 0.08 | 0.08 | 77 | 1005.7 |
| 20260506191002 | 19 | 168 | 0.0 | 14.5 | 0.05 | 0.05 | 0.05 | 76 | 1005.8 |
| 20260506190502 | 19 | 182 | 0.0 | 3.2 | 0.05 | 0.05 | 0.05 | 75 | 1005.8 |
| 20260506190002 | 20 | 193 | 0.0 | 3.2 | 0.05 | 0.05 | 0.05 | 74 | 1005.9 |
| 20260506185502 | 20 | 0 | 0.0 | 0.0 | 0.05 | 0.05 | 0.05 | 73 | 1005.9 |
| 20260506185002 | 20 | 158 | 0.0 | 4.8 | 0.03 | 0.03 | 0.03 | 71 | 1006.1 |
| 20260506184502 | 20 | 173 | 0.0 | 9.7 | 0.03 | 0.03 | 0.03 | 68 | 1006.1 |
| 20260506184002 | 20 | 211 | 0.0 | 9.7 | 0.00 | 0.00 | 0.00 | 68 | 1006.1 |
| 20260506183503 | 21 | 199 | 1.6 | 9.7 | 0.00 | 0.00 | 0.00 | 66 | 1006.0 |
| 20260506182502 | 21 | 236 | 1.6 | 24.1 | 0.00 | 0.00 | 0.00 | 63 | 1006.2 |
| 20260506181502 | 21 | 203 | 3.2 | 24.1 | 0.00 | 0.00 | 0.00 | 59 | 1006.3 |
| 20260506181002 | 21 | 211 | 3.2 | 24.1 | 0.00 | 0.00 | 0.00 | 58 | 1006.2 |
| 20260506180502 | 22 | 207 | 3.2 | 20.9 | 0.00 | 0.00 | 0.00 | 56 | 1006.2 |
| 20260506180002 | 22 | 216 | 3.2 | 20.9 | 0.00 | 0.00 | 0.00 | 55 | 1006.2 |
| 20260506175502 | 22 | 195 | 4.8 | 37.0 | 0.00 | 0.00 | 0.00 | 53 | 1006.2 |
| 20260506174502 | 22 | 193 | 4.8 | 24.1 | 0.00 | 0.00 | 0.00 | 51 | 1006.3 |
| 20260506173502 | 22 | 187 | 4.8 | 25.7 | 0.00 | 0.00 | 0.00 | 50 | 1006.0 |
| 20260506173003 | 22 | 183 | 6.4 | 25.7 | 0.00 | 0.00 | 0.00 | 51 | 1006.0 |
| 20260506172502 | 22 | 183 | 6.4 | 22.5 | 0.00 | 0.00 | 0.00 | 51 | 1006.0 |
| 20260506172002 | 22 | 182 | 6.4 | 19.3 | 0.00 | 0.00 | 0.00 | 51 | 1006.1 |
| 20260506171502 | 22 | 175 | 4.8 | 20.9 | 0.00 | 0.00 | 0.00 | 51 | 1006.2 |
| 20260506171002 | 22 | 167 | 4.8 | 22.5 | 0.00 | 0.00 | 0.00 | 51 | 1006.3 |
| 20260506170502 | 22 | 184 | 4.8 | 32.2 | 0.00 | 0.00 | 0.00 | 52 | 1006.3 |
| 20260506170003 | 22 | 201 | 1.6 | 32.2 | 0.00 | 0.00 | 0.00 | 54 | 1006.3 |
| 20260506165503 | 22 | 178 | 3.2 | 17.7 | 0.00 | 0.00 | 0.00 | 56 | 1006.5 |
| 20260506165002 | 22 | 174 | 4.8 | 20.9 | 0.00 | 0.00 | 0.00 | 54 | 1006.5 |
| 20260506164503 | 22 | 177 | 4.8 | 20.9 | 0.00 | 0.00 | 0.00 | 55 | 1006.5 |
| 20260506164003 | 22 | 179 | 6.4 | 19.3 | 0.00 | 0.00 | 0.00 | 54 | 1006.6 |
| 20260506163502 | 22 | 174 | 4.8 | 17.7 | 0.00 | 0.00 | 0.00 | 54 | 1006.8 |
| 20260506163002 | 21 | 178 | 4.8 | 25.7 | 0.00 | 0.00 | 0.00 | 55 | 1006.8 |
| 20260506162502 | 21 | 186 | 4.8 | 25.7 | 0.00 | 0.00 | 0.00 | 55 | 1006.9 |
| 20260506162002 | 21 | 182 | 1.6 | 25.7 | 0.00 | 0.00 | 0.00 | 56 | 1006.9 |
| 20260506161502 | 21 | 185 | 3.2 | 14.5 | 0.00 | 0.00 | 0.00 | 57 | 1006.9 |
| 20260506161002 | 21 | 200 | 3.2 | 16.1 | 0.00 | 0.00 | 0.00 | 57 | 1007.1 |
| 20260506160502 | 21 | 194 | 1.6 | 16.1 | 0.00 | 0.00 | 0.00 | 57 | 1007.2 |
| 20260506160002 | 21 | 173 | 3.2 | 20.9 | 0.00 | 0.00 | 0.00 | 57 | 1007.4 |
| 20260506155502 | 21 | 178 | 3.2 | 20.9 | 0.00 | 0.00 | 0.00 | 58 | 1007.4 |
| 20260506155003 | 21 | 176 | 4.8 | 19.3 | 0.00 | 0.00 | 0.00 | 58 | 1007.6 |
| 20260506154002 | 21 | 167 | 1.6 | 17.7 | 0.00 | 0.00 | 0.00 | 58 | 1007.8 |
| 20260506153503 | 21 | 171 | 3.2 | 17.7 | 0.00 | 0.00 | 0.00 | 58 | 1007.8 |
| 20260506152503 | 21 | 212 | 4.8 | 27.4 | 0.00 | 0.00 | 0.00 | 57 | 1007.9 |
| 20260506152002 | 21 | 219 | 4.8 | 27.4 | 0.00 | 0.00 | 0.00 | 57 | 1007.9 |
| 20260506151002 | 21 | 175 | 6.4 | 20.9 | 0.00 | 0.00 | 0.00 | 57 | 1008.2 |
| 20260506150503 | 21 | 174 | 6.4 | 20.9 | 0.00 | 0.00 | 0.00 | 57 | 1007.9 |
| 20260506145502 | 21 | 197 | 3.2 | 22.5 | 0.00 | 0.00 | 0.00 | 59 | 1008.3 |
| 20260506145002 | 21 | 195 | 4.8 | 22.5 | 0.00 | 0.00 | 0.00 | 59 | 1008.4 |
| 20260506144503 | 21 | 219 | 4.8 | 16.1 | 0.00 | 0.00 | 0.00 | 59 | 1008.2 |
| 20260506144002 | 21 | 194 | 4.8 | 19.3 | 0.00 | 0.00 | 0.00 | 60 | 1008.0 |
| 20260506143502 | 21 | 169 | 4.8 | 29.0 | 0.00 | 0.00 | 0.00 | 59 | 1008.0 |
| 20260506143002 | 21 | 165 | 6.4 | 30.6 | 0.00 | 0.00 | 0.00 | 60 | 1007.9 |
| 20260506142503 | 21 | 171 | 6.4 | 30.6 | 0.00 | 0.00 | 0.00 | 60 | 1008.0 |
| 20260506142003 | 21 | 174 | 6.4 | 30.6 | 0.00 | 0.00 | 0.00 | 61 | 1008.0 |
| 20260506141502 | 21 | 177 | 4.8 | 25.7 | 0.00 | 0.00 | 0.00 | 61 | 1007.9 |
| 20260506140503 | 20 | 169 | 3.2 | 16.1 | 0.00 | 0.00 | 0.00 | 64 | 1007.8 |
| 20260506140002 | 20 | 183 | 4.8 | 19.3 | 0.00 | 0.00 | 0.00 | 66 | 1007.9 |
| 20260506135502 | 20 | 188 | 4.8 | 19.3 | 0.00 | 0.00 | 0.00 | 65 | 1007.9 |
| 20260506135003 | 19 | 195 | 1.6 | 12.9 | 0.00 | 0.00 | 0.00 | 66 | 1007.9 |
| 20260506134002 | 18 | 174 | 3.2 | 16.1 | 0.00 | 0.00 | 0.00 | 68 | 1008.2 |
| 20260506133502 | 18 | 160 | 4.8 | 19.3 | 0.00 | 0.00 | 0.00 | 69 | 1008.3 |
| 20260506133002 | 18 | 171 | 4.8 | 19.3 | 0.00 | 0.00 | 0.00 | 69 | 1008.3 |
| 20260506132503 | 18 | 184 | 3.2 | 16.1 | 0.00 | 0.00 | 0.00 | 69 | 1008.4 |
| 20260506132002 | 18 | 182 | 1.6 | 11.3 | 0.00 | 0.00 | 0.00 | 70 | 1008.5 |
| 20260506131502 | 18 | 189 | 1.6 | 17.7 | 0.00 | 0.00 | 0.00 | 70 | 1008.4 |
| 20260506131003 | 18 | 166 | 4.8 | 17.7 | 0.00 | 0.00 | 0.00 | 70 | 1008.5 |
| 20260506130003 | 18 | 182 | 1.6 | 17.7 | 0.00 | 0.00 | 0.00 | 71 | 1008.4 |
| 20260506125503 | 18 | 179 | 4.8 | 24.1 | 0.00 | 0.00 | 0.00 | 71 | 1008.5 |
| 20260506125002 | 18 | 179 | 4.8 | 24.1 | 0.00 | 0.00 | 0.00 | 71 | 1008.6 |
| 20260506124503 | 17 | 177 | 4.8 | 20.9 | 0.00 | 0.00 | 0.00 | 71 | 1008.5 |
| 20260506124003 | 17 | 168 | 3.2 | 17.7 | 0.00 | 0.00 | 0.00 | 71 | 1008.4 |
| 20260506123502 | 17 | 181 | 3.2 | 16.1 | 0.00 | 0.00 | 0.00 | 72 | 1008.4 |
| 20260506123002 | 17 | 184 | 3.2 | 19.3 | 0.00 | 0.00 | 0.00 | 72 | 1008.4 |
| 20260506122002 | 17 | 196 | 1.6 | 20.9 | 0.00 | 0.00 | 0.00 | 72 | 1008.5 |
| 20260506121502 | 17 | 175 | 1.6 | 20.9 | 0.00 | 0.00 | 0.00 | 73 | 1008.8 |
| 20260506121002 | 17 | 170 | 1.6 | 17.7 | 0.00 | 0.00 | 0.00 | 73 | 1008.6 |
| 20260506120502 | 17 | 177 | 0.0 | 14.5 | 0.00 | 0.00 | 0.00 | 74 | 1008.7 |
| 20260506120002 | 17 | 171 | 1.6 | 8.0 | 0.00 | 0.00 | 0.00 | 74 | 1008.5 |
| 20260506115002 | 16 | 206 | 1.6 | 14.5 | 0.00 | 0.00 | 0.00 | 74 | 1008.9 |
| 20260506114503 | 16 | 192 | 1.6 | 14.5 | 0.00 | 0.00 | 0.00 | 74 | 1008.9 |
| 20260506114002 | 16 | 193 | 1.6 | 9.7 | 0.00 | 0.00 | 0.00 | 75 | 1008.9 |
| 20260506113502 | 16 | 189 | 1.6 | 9.7 | 0.00 | 0.00 | 0.00 | 74 | 1008.9 |
| 20260506113002 | 16 | 194 | 0.0 | 4.8 | 0.00 | 0.00 | 0.00 | 75 | 1008.9 |
| 20260506112502 | 16 | 177 | 0.0 | 19.3 | 0.00 | 0.00 | 0.00 | 75 | 1009.0 |
| 20260506112002 | 16 | 189 | 1.6 | 19.3 | 0.00 | 0.00 | 0.00 | 75 | 1009.0 |
| 20260506111502 | 16 | 196 | 1.6 | 14.5 | 0.00 | 0.00 | 0.00 | 76 | 1009.0 |
| 20260506111002 | 16 | 178 | 1.6 | 14.5 | 0.00 | 0.00 | 0.00 | 76 | 1008.9 |
| 20260506110502 | 16 | 146 | 0.0 | 9.7 | 0.00 | 0.00 | 0.00 | 77 | 1008.9 |
| 20260506105502 | 16 | 175 | 0.0 | 8.0 | 0.00 | 0.00 | 0.00 | 77 | 1009.0 |
| 20260506104503 | 15 | 184 | 0.0 | 8.0 | 0.00 | 0.00 | 0.00 | 77 | 1009.0 |
| 20260506104002 | 15 | 184 | 0.0 | 8.0 | 0.00 | 0.00 | 0.00 | 77 | 1009.0 |
| 20260506103502 | 15 | 162 | 0.0 | 4.8 | 0.00 | 0.00 | 0.00 | 77 | 1008.9 |
| 20260506103002 | 15 | 174 | 0.0 | 4.8 | 0.00 | 0.00 | 0.00 | 76 | 1008.9 |
| 20260506102502 | 15 | 177 | 0.0 | 8.0 | 0.00 | 0.00 | 0.00 | 76 | 1008.9 |
| 20260506101503 | 15 | 220 | 0.0 | 9.7 | 0.00 | 0.00 | 0.00 | 76 | 1008.9 |
| 20260506101002 | 15 | 206 | 0.0 | 6.4 | 0.00 | 0.00 | 0.00 | 76 | 1008.9 |
| 20260506100503 | 15 | 224 | 0.0 | 8.0 | 0.00 | 0.00 | 0.00 | 75 | 1008.9 |
| 20260506100002 | 15 | 202 | 0.0 | 8.0 | 0.00 | 0.00 | 0.00 | 75 | 1008.9 |
| 20260506095003 | 16 | 170 | 0.0 | 3.2 | 0.00 | 0.00 | 0.00 | 75 | 1008.9 |
| 20260506094502 | 16 | 168 | 0.0 | 4.8 | 0.00 | 0.00 | 0.00 | 75 | 1008.8 |
| 20260506094003 | 16 | 169 | 0.0 | 9.7 | 0.00 | 0.00 | 0.00 | 75 | 1008.9 |
| 20260506093503 | 16 | 169 | 1.6 | 12.9 | 0.00 | 0.00 | 0.00 | 74 | 1008.6 |
| 20260506092502 | 16 | 161 | 0.0 | 8.0 | 0.00 | 0.00 | 0.00 | 74 | 1008.9 |
| 20260506092003 | 16 | 162 | 0.0 | 4.8 | 0.00 | 0.00 | 0.00 | 74 | 1008.9 |
| 20260506091502 | 16 | 137 | 0.0 | 4.8 | 0.00 | 0.00 | 0.00 | 74 | 1008.9 |
| 20260506090502 | 16 | 175 | 0.0 | 11.3 | 0.00 | 0.00 | 0.00 | 73 | 1008.9 |
| 20260506090002 | 16 | 178 | 0.0 | 11.3 | 0.00 | 0.00 | 0.00 | 72 | 1008.9 |
| 20260506085502 | 16 | 194 | 0.0 | 8.0 | 0.00 | 0.00 | 0.00 | 72 | 1008.8 |
| 20260506085002 | 16 | 179 | 0.0 | 6.4 | 0.00 | 0.00 | 0.00 | 72 | 1008.9 |
| 20260506084003 | 16 | 184 | 0.0 | 9.7 | 0.00 | 0.00 | 0.00 | 71 | 1008.9 |
| 20260506083502 | 16 | 181 | 1.6 | 9.7 | 0.00 | 0.00 | 0.00 | 71 | 1008.9 |
| 20260506083002 | 16 | 177 | 0.0 | 9.7 | 0.00 | 0.00 | 0.00 | 71 | 1008.9 |
| 20260506082502 | 16 | 170 | 0.0 | 9.7 | 0.00 | 0.00 | 0.00 | 71 | 1008.9 |
| 20260506082003 | 16 | 171 | 0.0 | 9.7 | 0.00 | 0.00 | 0.00 | 70 | 1008.8 |
| 20260506081502 | 16 | 206 | 0.0 | 9.7 | 0.00 | 0.00 | 0.00 | 70 | 1008.8 |
| 20260506080503 | 16 | 173 | 0.0 | 8.0 | 0.00 | 0.00 | 0.00 | 69 | 1008.8 |
| 20260506073502 | 17 | 192 | 1.6 | 16.1 | 0.00 | 0.00 | 0.00 | 68 | 1008.6 |
| 20260506073003 | 17 | 189 | 1.6 | 16.1 | 0.00 | 0.00 | 0.00 | 67 | 1008.6 |
| 20260506072502 | 17 | 171 | 0.0 | 8.0 | 0.00 | 0.00 | 0.00 | 67 | 1008.5 |
| 20260506072003 | 17 | 179 | 3.2 | 19.3 | 0.00 | 0.00 | 0.00 | 67 | 1008.4 |
| 20260506071003 | 17 | 153 | 0.0 | 14.5 | 0.00 | 0.00 | 0.00 | 66 | 1008.4 |